Regional Weather Roundup
Issued by NWS Northern Indiana

Home | Current Version | Previous Version | Graphics & Text | Print | Product List | Glossary On
Versions: 1 2 3 4 5 6 7 8 9 10 11 12 13 14 15 16 17 18 19 20 21 22 23 24 25 26 27 28 29 30 31 32 33 34 35 36 37 38 39 40 41 42 43 44 45 46 47 48 49 50
089
ASUS43 KIWX 161700
RWRIWX

KIWX WEATHER ROUNDUP
NATIONAL WEATHER SERVICE NORTHERN INDIANA
1200 PM EST TUE JAN 16 2018

NOTE: "FAIR" INDICATES FEW OR NO CLOUDS BELOW 12,000 FEET WITH NO
SIGNIFICANT WEATHER AND/OR OBSTRUCTIONS TO VISIBILITY.

* THESE STATIONS ARE NOT UNDER NWS QUALITY CONTROL. THEY ALSO MAY NOT
  REPORT WEATHER SUCH AS PRECIPITATION OR FOG.

INZ001>027-161800-
NORTHERN INDIANA

CITY           SKY/WX    TMP DP  RH WIND       PRES   REMARKS
VALPARAISO     LGT SNOW   9   4  80 SW10      30.44S WCI  -5
KNOX*          CLOUDY     7   1  78 SW12      30.46F WCI  -9
SOUTH BEND     LGT SNOW   3  -1  83 S12       30.44S VSB 3/4 WCI -13
GOSHEN         CLOUDY     5  -1  76 SW12G20   30.44S WCI -11
MONTICELLO*    LGT SNOW   4  -2  75 W9        30.50S WCI -10
FORT WAYNE     PTSUNNY    3  -3  76 SW12      30.47S WCI -13
PERU/GRISSOM   CLOUDY     3  -2  78 W12       30.48R WCI -13

$$
INZ028>050-161800-
CENTRAL INDIANA

CITY           SKY/WX    TMP DP  RH WIND       PRES   REMARKS
LAFAYETTE      LGT SNOW   5   0  79 W10       30.52F WCI -10
MUNCIE*        CLOUDY     3  -5  69 SW9       30.48F HAZE    WCI -12
INDIANAPOLIS   PTSUNNY    1  -6  72 SW13      30.53F WCI -17

$$
MIZ043>046-050>051-056>058-064>065-071>073-077>080-161800-
SOUTHWEST LOWER MICHIGAN

CITY           SKY/WX    TMP DP  RH WIND       PRES   REMARKS
BATTLE CREEK   LGT SNOW   6   1  80 SW8       30.40F WCI  -7
BENTON HARBOR  FAIR       6  -2  69 SE7       30.44S WCI  -6
COLDWATER*     LGT SNOW   5  -1  75 SW6       30.41S WCI  -6
HILLSDALE*     LGT SNOW   9   1  72 W5        30.36F WCI   0
HOLLAND        PTSUNNY   11   6  81 CALM      30.42S
GRAND RAPIDS   FAIR      12   6  77 SW6       30.40S WCI   3
KALAMAZOO      LGT SNOW   5  -1  76 S8        30.42S VSB 1   WCI  -8
STURGIS*       LGT SNOW   5  -1  75 SW9       30.41S WCI  -9
THREE RIVERS*  FLURRIES   6  -1  73 SW8       30.44S WCI  -7

$$
OHZ001>008-015>018-024>025-161800-
NORTHWEST OHIO

CITY           SKY/WX    TMP DP  RH WIND       PRES   REMARKS
DEFIANCE       FAIR       3  -5  69 SW8       30.47S WCI -10
FINDLAY        FAIR       4  -5  66 SW15      30.44F WCI -14
TOLEDO EXPRESS CLOUDY     4  -1  80 SW13      30.44F WCI -13
TOLEDO METCALF CLOUDY     5  -2  72 SW15      30.45F HAZE    WCI -13
LIMA           CLOUDY     2  -3  80 SW15      30.44F WCI -17

$$
AND FOR LAKE MICHIGAN COASTAL AND OPEN LAKE BUOY OBSERVATIONS

STATION/POSITION TEMP    WIND        PRES    VSBY  WAVE
                 AIR SEA DIR/SP/G                  HT/PER
                 (F)     (DEG/KT/KT) (MB)    (MI)  (FT/S)
CALUMET HARBOR    19     250/  6/  9 1030.0R
MICHIGAN CITY            170/ 10/ 12   N/A
BURNS HARBOR      10     190/ 11/ 13 1031.2R
SAINT JOSEPH       5     170/  5/  8 1031.5

$$
&&




USA.gov is the U.S. government's official web portal to all federal, state and local government web resources and services.